DW6885 Weather Reports


Display with metric or nautical units.
time (UTC)temp
F
wind
direction
speed
MPH
gust
MPH
rain 1hr
in
rain 24hr
in
rain mn
in
humidity
%
barometer
mb
20171119212848 35 47 2.0 10.0 0.00 0.38 0.27 76 996.3
20171119211138 35 355 2.0 8.0 0.00 0.38 0.27 75 995.8
20171119205533 37 229 1.0 10.0 0.00 0.38 0.27 75 995.3
20171119203818 37 340 2.0 12.0 0.00 0.38 0.27 74 994.6
20171119202145 37 306 3.0 10.0 0.00 0.38 0.27 75 994.0
20171119200517 38 327 3.0 10.0 0.00 0.38 0.27 77 993.4
20171119194834 38 12 3.0 15.0 0.00 0.38 0.27 76 993.0
20171119193239 38 208 3.0 14.0 0.00 0.38 0.27 78 992.8
20171119191521 38 336 4.0 14.0 0.00 0.38 0.27 79 992.1
20171119185851 39 112 4.0 12.0 0.00 0.38 0.27 78 991.6
20171119184229 39 145 3.0 13.0 0.00 0.38 0.27 77 991.3
20171119182444 40 186 7.0 16.0 0.00 0.38 0.27 76 991.1
20171119180822 40 213 5.0 18.0 0.00 0.38 0.27 76 990.6
20171119175147 42 301 4.0 17.0 0.00 0.38 0.27 75 990.3
20171119173540 42 343 5.0 24.0 0.00 0.38 0.27 77 989.3
20171119171831 42 350 4.0 18.0 0.00 0.38 0.27 81 989.3
20171119170159 41 138 6.0 14.0 0.00 0.38 0.27 83 988.9
20171119164600 41 213 3.0 15.0 0.00 0.38 0.27 87 988.7
20171119162827 41 234 4.0 11.0 0.00 0.38 0.27 89 988.6
20171119161225 41 226 3.0 14.0 0.00 0.38 0.27 91 988.6
20171119155633 41 204 3.0 14.0 0.00 0.38 0.27 90 988.3
20171119153921 42 215 5.0 19.0 0.00 0.38 0.27 91 987.7
20171119152318 44 211 2.0 12.0 0.00 0.38 0.27 91 987.5
20171119150714 50 169 6.0 16.0 0.01 0.38 0.27 87 986.8
20171119144933 53 159 2.0 11.0 0.03 0.38 0.27 98 985.4
20171119143234 53 229 3.0 11.0 0.03 0.38 0.27 98 985.5
20171119141642 53 263 2.0 10.0 0.03 0.38 0.27 98 985.5
20171119140015 53 219 2.0 10.0 0.02 0.35 0.24 98 985.5
20171119134240 53 174 1.0 5.0 0.04 0.35 0.24 98 985.8
20171119132629 53 101 2.0 10.0 0.07 0.35 0.24 98 986.0
20171119131014 53 194 2.0 6.0 0.08 0.34 0.23 98 986.4
20171119125222 53 177 2.0 9.0 0.06 0.32 0.21 98 986.6
20171119123546 53 227 2.0 12.0 0.07 0.30 0.19 98 987.0
20171119122009 53 284 1.0 8.0 0.05 0.27 0.16 98 986.9
20171119120316 53 242 2.0 14.0 0.05 0.26 0.15 98 987.4
20171119114516 53 219 3.0 13.0 0.05 0.25 0.14 98 988.0
20171119112854 52 178 3.0 10.0 0.02 0.22 0.11 98 988.5
20171119111233 52 208 2.0 10.0 0.02 0.21 0.10 98 988.0
20171119105543 52 18 2.0 10.0 0.03 0.21 0.10 98 987.7
20171119103919 52 171 1.0 7.0 0.03 0.20 0.09 98 988.0
20171119102145 52 327 2.0 11.0 0.02 0.19 0.08 98 988.9
20171119100514 52 219 1.0 8.0 0.02 0.19 0.08 98 989.2
20171119094830 52 163 4.0 11.0 0.02 0.18 0.07 98 990.1
20171119093219 51 22 2.0 9.0 0.01 0.17 0.06 98 990.4
20171119091615 51 175 1.0 6.0 0.01 0.17 0.06 99 990.5
20171119085945 51 27 1.0 12.0 0.03 0.17 0.06 99 990.6
20171119084306 50 239 2.0 6.0 0.02 0.16 0.05 99 991.1
20171119082530 50 206 0.0 8.0 0.02 0.16 0.05 99 991.0
20171119080930 50 226 2.0 9.0 0.02 0.16 0.05 99 991.6
20171119075312 49 191 0.0 9.0 0.00 0.14 0.03 99 992.1
20171119073537 49 145 1.0 6.0 0.00 0.14 0.03 99 992.6
20171119071935 48 234 0.0 4.0 0.01 0.14 0.03 99 993.0
20171119070315 47 165 0.0 5.0 0.01 0.14 0.03 99 993.3
20171119064514 47 208 1.0 6.0 0.02 0.14 0.03 99 993.9
20171119062903 46 167 1.0 6.0 0.01 0.13 0.02 99 994.5
20171119061228 45 249 1.0 4.0 0.01 0.13 0.02 99 995.0
20171119055520 44 278 0.0 1.0 0.02 0.13 0.02 99 995.5
20171119053921 44 195 0.0 6.0 0.01 0.12 0.01 99 995.5
20171119052413 44 196 0.0 3.0 0.01 0.12 0.01 99 995.8
20171119050514 43 265 0.0 3.0 0.00 0.11 0.00 99 996.5
20171119044838 43 171 0.0 5.0 0.01 0.11 0.11 99 997.0
20171119043225 42 163 0.0 2.0 0.02 0.11 0.11 98 997.6
20171119041614 42 293 0.0 2.0 0.02 0.11 0.11 98 998.1
20171119035848 41 193 0.0 3.0 0.02 0.11 0.11 98 998.6
20171119034236 41 267 1.0 5.0 0.02 0.10 0.10 98 998.7
20171119032915 40 226 0.0 5.0 0.01 0.09 0.09 98 998.5
20171119030822 40 257 0.0 1.0 0.01 0.09 0.09 98 999.4
20171119025149 39 257 0.0 1.0 0.00 0.08 0.08 98 1000.0
20171119023538 39 257 0.0 2.0 0.00 0.08 0.08 98 1000.3
20171119021932 39 255 0.0 3.0 0.02 0.08 0.08 98 1000.5
20171119020327 38 210 1.0 5.0 0.05 0.08 0.08 97 1000.5
20171119014628 38 5 0.0 1.0 0.06 0.08 0.08 97 1001.4
20171119012948 38 5 0.0 2.0 0.07 0.07 0.07 96 1001.7
20171119011226 38 5 0.0 2.0 0.04 0.04 0.04 96 1002.2
20171119005627 38 5 0.0 2.0 0.02 0.02 0.02 95 1002.4
20171119003925 37 5 0.0 3.0 0.01 0.01 0.01 94 1002.5
20171119002321 37 45 0.0 0.0 0.00 0.00 0.00 94 1003.0
20171119000713 37 221 0.0 3.0 0.00 0.00 0.00 95 1003.4
20171118234932 37 211 0.0 1.0 0.00 0.00 0.00 94 1003.8
20171118233323 37 184 0.0 0.0 0.00 0.00 0.00 93 1004.1
20171118231619 36 184 0.0 1.0 0.00 0.00 0.00 92 1004.5
20171118225916 37 184 0.0 1.0 0.00 0.00 0.00 90 1004.4
20171118224239 37 184 0.0 0.0 0.00 0.00 0.00 89 1004.6
20171118222633 37 184 0.0 0.0 0.00 0.00 0.00 88 1004.7
20171118220914 37 184 0.0 0.0 0.00 0.00 0.00 88 1005.0
20171118215306 37 184 0.0 0.0 0.00 0.00 0.00 87 1005.2